Weather History for KSET - October, 2012

Change the Weather History Date:

Friday, October 12, 2012

  Actual Average (KSTL) Record (KSTL)
Temperature  
Mean Temperature 54 °F 60 °F  
Max Temperature 64 °F 70 °F 89 °F (1890)
Min Temperature 46 °F 50 °F 31 °F (1987)
Degree Days  
Heating Degree Days 10 6  
Month to date heating degree days 62  
Since 1 July heating degree days 103  
Cooling Degree Days 0 1  
Month to date cooling degree days 26  
Year to date cooling degree days 1627  
Growing Degree Days 4 (Base 50)    
Moisture  
Dew Point 46 °F    
Average Humidity 72    
Maximum Humidity 88    
Minimum Humidity 53    
Precipitation  
Precipitation 0.00 in 0.11 in 1.82 in (1929)
Month to date precipitation 1.28  
Year to date precipitation 32.16  
Snow  
Snow 0.00 in 0.00 in 0.00 in (2013)
Month to date snowfall 0.0  
Since 1 July snowfall 0.0  
Since 1 September snowfall 0.0  
Snow Depth -    
Sea Level Pressure  
Sea Level Pressure 30.27 in    
Wind  
Wind Speed 7 mph (NE)    
Max Wind Speed 16 mph    
Max Gust Speed 22 mph    
Visibility 10 miles    
Events      
T = Trace of Precipitation, MM = Missing Value Source: NWS Daily Summary

Daily Weather History Graph

Daily Weather History Graph

Search for Another Location

Airport or City:

Trip Planner

Search our weather history database for the weather conditions in past years. The results will help you decide how hot, cold, wet, or windy it might be!

Date:

Astronomy

Oct. 12, 2012 Rise Set
Actual Time 7:08 AM CDT 6:26 PM CDT
Civil Twilight 6:41 AM CDT 6:53 PM CDT
Nautical Twilight 6:10 AM CDT 7:24 PM CDT
Astronomical Twilight 5:40 AM CDT 7:55 PM CDT
Moon 3:53 AM CDT (10/12) 4:35 PM CDT (10/12)
Length of Visible Light 12h 11m
Length of Day
11h 18m
Waning Crescent, 10% of the Moon is Illuminated
Oct 12
Waning Crescent
Oct 15
New
Oct 21
First Quarter
Oct 29
Full
Nov 6
Last Quarter

Hourly Weather History & Observations

Time (CDT) Temp. Dew Point Humidity Pressure Visibility Wind Dir Wind Speed Gust Speed Precip Events Conditions
12:54 AM 55.9 °F 51.1 °F 84% 30.20 in 10.0 mi WNW 6.9 mph - N/A   Overcast
1:17 AM 55.4 °F 51.8 °F 88% 30.21 in 10.0 mi West 5.8 mph - N/A   Overcast
1:34 AM 55.4 °F 51.8 °F 88% 30.22 in 10.0 mi West 5.8 mph - N/A   Overcast
1:54 AM 55.9 °F 52.0 °F 87% 30.21 in 10.0 mi WNW 6.9 mph - N/A   Overcast
2:19 AM 55.4 °F 51.8 °F 88% 30.22 in 10.0 mi WNW 5.8 mph - N/A   Overcast
2:54 AM 55.9 °F 51.1 °F 84% 30.22 in 10.0 mi Calm Calm - N/A   Overcast
3:54 AM 54.0 °F 50.0 °F 86% 30.20 in 9.0 mi North 5.8 mph - N/A   Overcast
4:54 AM 51.1 °F 42.1 °F 71% 30.26 in 10.0 mi NNE 16.1 mph 21.9 mph N/A   Mostly Cloudy
5:54 AM 48.0 °F 37.9 °F 68% 30.29 in 10.0 mi NNE 13.8 mph - N/A   Clear
6:54 AM 48.0 °F 37.9 °F 68% 30.30 in 10.0 mi NE 11.5 mph - N/A   Overcast
7:54 AM 46.9 °F 37.0 °F 68% 30.33 in 10.0 mi ENE 8.1 mph - N/A   Overcast
8:54 AM 50.0 °F 37.9 °F 63% 30.35 in 10.0 mi ENE 11.5 mph - N/A   Partly Cloudy
9:54 AM 52.0 °F 39.9 °F 63% 30.37 in 10.0 mi NE 12.7 mph - N/A   Partly Cloudy
10:54 AM 55.0 °F 42.1 °F 62% 30.38 in 10.0 mi East 10.4 mph - N/A   Clear
11:54 AM 57.0 °F 43.0 °F 59% 30.37 in 10.0 mi Variable 4.6 mph - N/A   Clear
12:54 PM 59.0 °F 44.1 °F 58% 30.35 in 10.0 mi East 6.9 mph - N/A   Clear
1:54 PM 62.1 °F 45.0 °F 53% 30.31 in 10.0 mi ENE 11.5 mph - N/A   Scattered Clouds
2:54 PM 62.1 °F 46.0 °F 56% 30.29 in 10.0 mi East 5.8 mph - N/A   Clear
3:54 PM 63.0 °F 46.0 °F 54% 30.27 in 10.0 mi East 6.9 mph - N/A   Clear
5:54 PM 62.1 °F 48.0 °F 60% 30.24 in 10.0 mi ENE 4.6 mph - N/A   Partly Cloudy
6:54 PM 57.9 °F 48.0 °F 70% 30.24 in 10.0 mi ENE 5.8 mph - N/A   Clear
7:54 PM 54.0 °F 46.9 °F 77% 30.24 in 10.0 mi East 5.8 mph - N/A   Clear
9:54 PM 53.1 °F 46.9 °F 80% 30.23 in 10.0 mi ESE 6.9 mph - N/A   Clear
10:54 PM 53.1 °F 46.9 °F 80% 30.22 in 10.0 mi SE 4.6 mph - N/A   Clear
11:54 PM 50.0 °F 46.0 °F 86% 30.22 in 10.0 mi ESE 4.6 mph - N/A   Clear